Regional Weather Roundup
Issued by NWS Bismarck, ND

Home | Current Version | Previous Version | Text Only | Print | Product List | Glossary On
Versions: 1 2 3 4 5 6 7 8 9 10 11 12 13 14 15 16 17 18 19 20 21 22 23 24 25 26 27 28 29 30 31 32 33 34 35 36 37 38 39 40 41 42 43 44 45 46 47 48 49 50
000
ASUS43 KBIS 190310
RWRBIS

NWR BROADCAST TEXT
NATIONAL WEATHER SERVICE BISMARCK ND
900 PM CST SAT NOV 18 2017

NOTE: "FAIR" INDICATES FEW OR NO CLOUDS BELOW 12,000 FEET WITH NO
SIGNIFICANT WEATHER AND/OR OBSTRUCTIONS TO VISIBILITY.


CITY           SKY/WX    TMP DP  RH WIND       PRES   REMARKS
WILLISTON      CLOUDY    28  19  69 W15       30.01S WCI  16
MINOT          CLEAR     24  16  71 W9        29.99F WCI  14
MINOT AFB      CLOUDY    10   6  82 W7        29.98F WCI  -1
BISMARCK       CLEAR     22  17  81 CALM      30.06F
DICKINSON      CLOUDY    27  21  78 W12       30.00F WCI  17
GARRISON         N/A     22  17  81 W10       30.00F WCI  11
HETTINGER ARPT CLOUDY    22  16  78 NW8       30.08F WCI  12
JAMESTOWN      CLEAR     17  12  80 W5        30.05S WCI  10
CARRINGTON     FAIR      14  10  85 W8        30.05F WCI   3
LINTON           N/A     18  10  73 SW10      30.08F WCI   6
OAKES            N/A     14  10  85 W9        30.08S WCI   2
TIOGA          FAIR      19  18  93 W6        30.00S WCI  11
$$

CITY           SKY/WX    TMP DP  RH WIND       PRES   REMARKS
GRAND FORKS    PTCLDY    13   7  77 NW6       30.04S WCI   4
GRAND FORKS AF PTCLDY    16   7  67 NW9       30.03S WCI   4
DEVILS LAKE    CLOUDY    12   8  84 W12       30.03S WCI  -2
FARGO          CLOUDY    14   9  80 W9        30.07F WCI   2
CANDO          FAIR      12   9  85 NW12      30.02F WCI  -2
CAVALIER       FAIR      14   5  67 W14       30.01F WCI  -1
GWINNER        CLEAR     12   7  79 SW7       30.08S WCI   2
LANGDON        FAIR       9   5  85 W10       29.99S WCI  -6
ROLLA          FAIR      14   9  79 W15       29.97F WCI  -1
WALHALLA       FAIR      16   5  62 W14       30.01S WCI   1
$$

CITY           SKY/WX    TMP DP  RH WIND       PRES   REMARKS
ABERDEEN       CLOUDY    16  11  80 SW5       30.12S WCI   9
MOBRIDGE       PTCLDY    23  17  78 SE5       30.08S WCI  17
BUFFALO          N/A     31  21  66 W7        30.03S
RAPID CITY     CLEAR     24  17  74 CALM      30.15F
GLASGOW        CLOUDY    30  21  69 W3        30.00F
SIDNEY         CLOUDY    32  22  66 W8        30.03F
WOLF POINT     CLOUDY    23  16  74 W3        30.03S
GLENDIVE       CLOUDY    28  21  75 W7        30.06F
MILES CITY     CLOUDY    31  24  75 S9        30.07F
BAKER          CLOUDY    29  22  75 SW10      30.08S WCI  20
$$

CITY           SKY/WX    TMP DP  RH WIND       PRES   REMARKS
BILLINGS       CLOUDY    36  21  54 W9        30.09F
GREAT FALLS    CLOUDY    38  17  42 SW22G36   30.02F
REGINA         CLOUDY     7   3  85 SE8       29.91F WCI  -6
ESTEVAN        PTCLDY    10   7  85 SW8       29.97S WCI  -1
$$





USA.gov is the U.S. government's official web portal to all federal, state and local government web resources and services.